Theta_e
316 316 316 317 316 316 316 316 317 317 316 316 315 315 315 315 314 305 299 303 311 314 313 307 305 305 305 306 311 315 302 298 300 300 305 312 310 316 320 317 321 323 321 323 328
315 315 316 316 316 316 316 316 316 316 316 315 315 315 315 314 305 299 306 310 314 312 302 300 298 302 297 302 305 304 299 300 306 307 305 310 311 312 313 316 318 321 322 326 325
316 316 316 315 315 315 315 315 315 316 315 315 315 315 314 312 298 295 311 314 311 308 304 305 304 300 295 297 298 300 297 303 305 308 309 309 309 313 312 310 315 318 321 322 322
316 316 316 315 315 315 315 315 315 315 315 314 314 314 312 304 287 299 309 309 309 306 303 303 300 295 293 292 296 292 298 301 303 307 307 308 312 310 312 314 318 322 324 323 321
316 315 315 315 314 314 314 314 314 314 314 313 314 312 306 296 296 304 307 306 303 304 300 300 298 296 292 292 293 292 293 296 299 301 303 306 308 310 310 316 318 321 322 323 323
315 314 314 313 313 313 313 313 313 313 313 313 313 310 301 291 303 303 303 303 301 301 299 300 298 300 295 294 293 295 295 294 296 296 300 299 304 306 311 316 315 318 320 322 323
313 313 312 312 312 312 312 312 312 312 312 313 313 309 299 296 304 305 303 300 302 302 298 299 299 297 296 292 296 295 291 293 294 294 293 299 297 302 310 314 313 315 318 321 323
312 312 312 311 312 312 312 312 312 312 312 312 311 305 294 304 306 303 303 301 304 304 302 301 300 296 296 296 293 289 289 284 291 293 294 296 291 303 309 310 311 314 316 319 322
312 312 312 312 312 312 311 311 310 310 311 311 305 299 291 303 297 301 302 298 300 300 301 300 299 293 294 289 285 287 281 283 287 293 293 294 291 300 305 308 308 312 314 316 320
313 313 312 312 313 311 310 307 304 307 304 305 302 294 296 291 296 298 301 300 296 296 295 294 293 288 288 285 277 280 281 283 284 289 291 290 291 298 303 307 308 310 312 315 317
311 311 311 312 311 308 304 301 296 294 296 291 291 290 292 296 299 297 299 296 296 293 287 292 286 282 284 286 286 284 282 281 284 289 289 291 292 293 299 301 306 310 311 312 315
310 309 310 310 308 307 303 296 294 297 287 294 293 293 295 296 290 293 299 292 291 286 289 287 282 287 288 287 284 283 281 281 285 288 287 286 288 295 298 299 304 307 311 313 315
309 310 309 309 306 303 299 296 301 299 287 289 291 290 292 294 288 289 295 292 289 286 286 283 284 288 286 285 283 283 281 281 281 286 288 286 285 289 297 303 304 307 310 313 314
308 309 308 307 303 300 297 299 300 300 283 284 286 290 293 292 286 293 296 292 289 285 287 286 289 286 285 283 284 279 286 284 282 282 278 287 278 289 294 298 301 306 308 311 313
308 308 306 305 301 296 298 300 299 293 272 283 285 294 292 286 287 289 297 292 285 285 286 283 285 284 283 284 286 282 287 285 284 282 282 282 279 286 294 293 297 303 307 311 314
308 307 304 301 300 299 299 297 294 281 271 279 285 284 284 285 286 288 289 292 291 287 287 286 290 287 285 287 288 288 285 284 284 282 274 280 279 283 291 295 298 302 306 309 313
308 306 302 299 296 299 296 292 281 275 280 279 280 284 282 281 282 284 282 282 282 278 278 281 284 289 288 285 288 286 281 274 273 274 273 283 280 283 293 299 299 301 304 309 313
306 302 299 297 298 297 293 287 274 273 274 282 282 281 278 280 281 281 280 279 285 283 278 275 273 284 285 285 284 283 282 277 270 273 277 283 279 287 295 297 303 304 305 309 312
301 299 299 297 297 295 290 279 276 275 280 280 281 277 276 278 280 279 279 278 283 283 276 274 275 285 286 286 288 283 279 286 279 284 280 285 289 296 299 298 300 304 306 307 310
298 296 296 295 295 293 287 279 277 280 282 281 275 276 274 277 277 278 277 282 281 284 284 280 274 283 286 286 288 286 288 278 281 274 277 282 286 289 295 297 300 302 305 309 311
295 291 295 293 293 289 280 278 277 283 284 279 277 277 278 277 278 277 277 282 283 282 284 282 279 279 285 283 283 284 282 285 284 281 278 278 284 294 294 297 298 301 306 309 314
292 286 293 293 286 276 280 277 282 283 285 283 282 280 278 279 277 276 277 280 285 283 279 282 279 275 280 285 287 288 286 285 281 282 284 284 287 294 296 297 301 302 307 311 312
288 288 293 291 282 280 278 278 282 282 283 282 281 283 282 278 275 276 279 284 285 282 281 281 278 275 278 283 287 284 287 288 287 286 284 283 285 293 294 295 302 299 298 297 296
288 285 286 286 282 280 278 276 277 283 282 284 283 283 280 275 278 277 278 282 283 283 285 283 279 278 273 277 281 280 284 288 288 284 284 283 285 287 290 290 293 293 294 294 293
284 279 279 281 281 281 278 277 278 278 283 284 281 279 278 274 274 273 277 279 282 284 282 280 274 278 278 280 283 282 283 284 283 283 282 284 283 285 289 290 291 292 292 291 291
286 282 280 277 278 280 280 278 279 280 281 279 277 279 278 275 276 273 277 278 277 281 279 281 275 277 276 284 283 280 280 282 281 281 284 284 282 286 288 292 291 292 291 290 291
286 285 287 277 279 279 280 280 280 282 282 283 282 279 276 278 281 283 283 282 281 279 278 278 276 275 274 280 280 278 278 280 282 281 281 279 283 285 284 285 288 290 291 290 291
Wind_Speed
8 8 7 7 7 9 10 11 12 10 11 12 13 13 15 16 19 12 4 2 6 10 10 8 6 7 7 7 11 9 11 19 27 25 20 17 17 11 3 8 6 7 2 2 19
8 7 7 6 7 8 10 11 10 10 10 11 12 13 13 16 14 9 2 6 10 9 9 11 10 8 4 5 6 12 14 25 20 18 16 22 20 15 12 11 9 8 4 11 17
7 6 5 7 7 7 9 10 10 9 10 11 12 13 12 13 7 1 3 5 9 8 5 5 4 4 5 7 13 10 24 18 16 21 10 20 23 21 15 18 15 14 14 15 16
5 5 5 6 6 7 8 9 9 9 10 12 12 11 11 4 6 3 7 5 13 7 4 3 2 4 4 8 7 19 21 13 11 16 13 16 19 23 22 14 5 6 16 19 19
7 6 6 6 6 7 8 8 8 8 9 10 11 7 4 6 8 1 7 9 10 5 3 3 5 6 8 5 10 17 17 20 16 16 16 15 20 18 19 20 10 5 14 18 18
7 6 7 7 7 7 7 7 8 8 10 10 8 1 3 10 3 1 6 11 7 3 2 3 5 5 10 12 11 10 14 16 18 17 14 17 19 12 14 18 16 12 13 15 18
7 7 7 6 7 7 8 9 9 9 9 9 6 1 6 15 3 10 10 5 4 6 7 7 7 7 4 10 8 12 16 15 17 17 16 13 22 29 21 18 19 17 13 13 16
5 6 6 6 8 10 12 12 11 10 9 8 2 2 8 2 8 13 7 7 7 8 10 10 10 11 11 10 14 16 16 18 8 12 17 10 20 20 22 22 22 20 18 15 16
5 6 7 8 10 12 14 14 10 8 7 3 4 1 10 7 6 7 7 8 8 8 5 7 5 8 9 13 13 13 15 16 14 15 15 23 23 21 20 19 24 24 19 16 16
6 7 8 10 11 13 16 9 7 2 3 5 4 4 5 4 8 10 12 11 8 4 6 6 7 10 13 13 16 10 15 15 16 8 15 23 27 18 13 22 22 22 25 20 19
7 8 10 11 11 12 9 3 5 2 4 6 13 10 18 10 13 7 6 3 2 3 6 8 10 18 22 19 22 19 19 20 19 17 15 17 20 25 24 16 17 20 21 23 23
8 10 11 11 6 7 6 5 2 4 11 8 11 9 12 6 9 15 2 4 3 11 7 10 20 20 18 17 20 23 23 23 22 23 16 22 23 20 22 29 23 22 21 21 20
8 10 12 13 3 5 6 3 4 4 5 6 3 4 5 4 13 19 5 3 11 15 17 20 22 12 17 20 20 24 24 23 20 15 15 17 22 24 22 17 25 26 23 21 23
9 10 11 9 1 2 1 6 4 5 4 4 3 0 2 9 8 6 5 5 6 14 14 15 18 19 23 27 20 24 26 21 18 12 11 14 11 21 23 22 18 23 24 24 22
8 9 8 10 1 2 5 7 2 3 5 9 5 3 13 7 12 1 2 6 16 19 12 19 22 24 24 30 24 21 16 18 18 18 17 18 10 9 20 26 26 26 26 23 23
8 9 5 2 1 1 6 3 3 2 4 5 5 13 15 4 5 8 7 7 10 12 14 20 24 21 26 23 23 9 12 9 11 12 12 20 12 12 16 25 21 24 27 26 23
8 7 4 1 4 8 4 3 2 1 6 8 9 16 15 8 11 10 15 12 7 10 14 24 9 6 6 9 14 16 13 6 9 9 10 9 13 18 15 15 24 23 24 26 24
6 4 4 3 6 5 3 1 3 4 4 5 8 16 6 12 7 15 11 9 5 13 16 10 18 3 2 6 5 19 16 7 10 8 6 14 10 11 25 27 13 20 22 23 26
3 2 1 5 6 2 2 4 1 3 4 9 13 5 5 3 8 10 8 6 7 11 10 10 12 7 9 12 6 12 16 21 7 1 6 6 7 11 7 10 14 16 16 19 23
2 1 1 10 4 1 3 2 3 3 4 2 4 2 7 9 10 12 7 5 9 13 18 6 20 11 8 3 12 7 12 10 7 5 8 6 6 6 8 12 7 13 14 18 21
2 1 1 7 1 3 3 3 5 3 3 3 3 6 7 8 11 7 7 11 9 16 20 17 7 16 13 3 7 6 13 10 7 8 6 5 5 5 3 4 6 8 14 17 19
2 1 3 3 2 1 0 3 3 4 2 3 4 6 4 7 8 5 6 7 15 18 15 6 8 9 22 9 1 4 7 14 5 9 6 3 1 9 8 9 10 9 14 17 9
2 2 2 2 2 2 3 4 4 3 2 2 4 3 0 5 9 5 6 7 14 22 11 13 6 11 7 4 8 6 6 4 14 2 3 3 2 10 7 7 7 7 10 10 14
2 2 3 5 1 1 3 2 5 3 4 4 8 6 4 6 6 9 17 10 24 15 16 12 6 6 7 14 14 12 19 11 3 2 1 4 6 13 10 9 7 7 11 13 11
4 2 1 3 2 1 1 1 4 4 3 3 2 3 6 6 14 3 8 22 12 5 16 7 7 11 18 15 6 9 17 18 10 11 7 7 6 11 10 8 9 9 14 15 13
3 3 2 1 2 4 1 2 3 4 3 3 2 7 8 8 11 18 16 15 8 10 17 8 7 14 5 3 6 19 23 17 20 17 11 11 8 12 11 11 14 13 14 17 14
1 2 1 1 2 2 1 2 3 7 3 7 3 12 10 11 11 14 15 16 18 17 12 8 9 7 7 14 14 1 22 11 8 17 12 11 7 10 16 16 16 15 15 18 15
Wind_Direction
331 325 333 323 333 344 343 342 336 334 336 334 328 332 330 330 322 314 302 69 342 349 328 336 3 330 283 252 252 258 241 235 233 234 241 230 241 221 279 219 194 183 275 16 146
330 326 344 3 14 349 338 338 337 335 333 329 328 329 330 329 316 303 276 254 360 1 345 339 340 342 279 253 229 227 236 241 245 235 245 239 234 239 223 214 203 172 107 136 155
324 357 25 12 357 349 341 334 331 334 331 329 328 330 334 323 301 140 4 254 347 352 327 296 295 301 272 260 238 248 244 259 257 247 259 261 241 229 227 234 227 205 168 165 170
29 27 12 16 356 352 344 333 334 336 335 330 324 335 335 306 312 129 1 4 345 328 304 290 266 275 276 260 252 258 261 266 292 292 303 275 252 235 226 218 223 213 173 168 181
54 48 33 11 2 354 341 331 331 332 329 323 320 351 330 298 261 354 355 343 325 321 332 308 272 280 266 277 290 266 272 274 274 282 294 277 258 266 239 228 213 167 166 183 189
60 55 48 16 357 347 330 321 324 328 319 314 315 107 321 285 5 264 330 309 276 271 287 260 282 289 284 269 263 298 296 288 278 268 276 291 276 256 240 249 244 206 185 189 193
48 44 38 10 343 329 323 323 323 313 305 303 309 272 279 263 291 300 298 256 241 237 257 260 278 251 285 279 284 283 285 287 273 260 258 290 274 243 236 242 243 218 209 192 196
43 37 25 3 342 338 330 319 305 290 283 283 337 238 266 259 304 285 266 271 247 250 248 266 269 259 245 265 273 277 276 270 268 247 233 201 260 254 231 232 232 232 221 208 194
36 25 15 6 345 337 329 330 331 298 268 299 225 283 267 312 273 284 246 265 291 268 258 270 223 235 221 238 265 234 258 254 266 248 252 209 248 244 264 226 230 231 225 210 202
32 31 8 353 338 340 331 349 32 77 77 113 91 236 239 324 312 294 280 270 271 287 274 209 213 227 220 219 240 248 240 252 260 259 238 245 243 241 262 241 226 230 225 218 214
27 12 359 347 349 358 352 7 355 229 7 277 292 275 289 307 292 253 292 264 227 223 250 206 224 229 235 226 247 268 273 270 267 265 281 267 270 243 236 244 257 233 231 225 222
18 6 353 347 24 23 36 58 72 317 306 292 271 260 273 278 290 295 189 239 211 269 261 245 248 257 262 257 246 251 257 255 264 261 260 261 270 272 248 234 230 235 230 227 220
18 5 351 345 106 48 69 73 293 215 286 308 261 271 293 212 296 302 206 269 255 269 256 253 257 270 249 246 242 247 247 249 246 270 262 267 269 264 251 238 230 235 231 225 222
10 358 360 349 111 36 70 328 279 220 308 331 344 314 273 304 276 284 237 263 246 273 285 267 268 258 246 250 234 245 237 251 260 260 253 197 267 236 220 224 225 233 227 228 223
356 352 27 28 38 36 332 325 175 228 309 340 301 329 325 301 300 45 327 268 272 272 286 264 288 286 246 234 219 243 249 238 238 236 259 251 267 268 214 218 218 219 224 221 218
347 357 8 39 43 41 321 267 227 269 276 336 311 323 334 316 308 305 309 284 272 286 274 260 270 265 256 250 221 218 242 188 234 229 236 239 221 252 212 214 209 214 214 217 218
346 29 43 29 329 332 317 233 312 259 18 336 327 328 327 321 327 323 322 318 323 313 318 310 267 267 265 208 206 196 171 213 218 201 241 221 215 246 262 233 214 211 212 209 209
9 58 40 68 317 322 275 331 15 41 291 331 315 314 307 358 345 326 311 334 321 332 308 327 316 20 44 253 178 187 188 197 202 202 236 194 231 227 236 238 244 229 217 207 204
92 39 48 350 338 312 295 46 299 229 308 328 312 309 312 338 332 327 316 302 326 349 333 298 270 268 243 228 210 165 209 228 322 132 231 197 242 260 202 208 217 222 219 210 205
48 5 337 331 347 296 68 334 261 252 324 335 312 282 307 340 334 336 315 300 331 334 340 279 292 309 317 141 202 208 182 194 223 249 208 192 225 230 190 200 203 227 218 208 200
67 17 58 343 320 40 68 249 272 254 227 231 269 275 269 320 311 319 280 300 357 335 325 314 269 293 318 338 169 195 189 220 214 242 316 150 215 27 309 281 264 265 232 207 192
81 334 17 325 22 20 13 210 264 273 233 265 248 264 278 315 289 285 264 290 343 340 324 318 292 293 314 311 266 252 186 211 217 188 216 299 118 3 323 295 275 263 231 197 161
70 305 27 311 38 353 324 289 268 267 275 275 279 253 295 294 303 231 291 307 327 332 346 344 303 308 2 332 45 330 291 224 235 273 209 226 97 9 349 336 227 135 100 99 105
92 358 358 53 44 127 342 302 303 250 258 264 279 300 350 280 249 283 302 315 326 312 347 329 281 300 288 291 310 312 333 319 308 274 44 47 334 346 356 15 49 73 96 93 91
20 103 83 334 64 293 142 299 289 322 242 290 289 286 329 287 301 248 293 322 302 303 336 337 281 304 302 287 294 355 15 24 19 7 37 349 11 353 1 41 59 80 88 87 89
137 148 115 124 272 287 238 255 304 332 284 290 269 314 296 267 268 299 309 325 308 312 325 337 292 319 297 296 348 30 12 17 26 6 15 9 45 352 1 56 62 67 85 85 82
166 92 158 57 278 277 234 278 303 337 276 255 311 306 289 270 285 289 285 278 272 292 317 310 319 328 293 329 326 41 10 354 13 28 352 19 352 345 34 43 49 57 72 78 73